• In Moldova, Republic
  • List of Countries
  • For 7 days
  • Water Temperature
  • Satellite Maps
  • Weather Map
  • Weather Widgets
  • user-avatar
    Login

    Hourly Weather Ganja

    Today, 17 December, Sunday

    Time Temperature Precipitation Wind Pressure Humidity
    00:00 +6°C° 0 mm 1 mps 731 mmHg 72%
    01:00 +6°C° 0 mm 1 mps 731 mmHg 72%
    02:00 +6°C° 0 mm 1 mps 731 mmHg 71%
    03:00 +6°C° 0 mm 1 mps 730 mmHg 70%
    04:00 +5°C° 0 mm 1 mps 730 mmHg 69%
    05:00 +5°C° 0 mm 1 mps 730 mmHg 69%
    06:00 +5°C° 0 mm 1 mps 730 mmHg 68%
    07:00 +6°C° 0 mm 1 mps 730 mmHg 66%
    08:00 +7°C° 0 mm 1 mps 730 mmHg 64%
    09:00 +8°C° 0 mm 1 mps 730 mmHg 62%
    10:00 +9°C° 0 mm 1 mps 730 mmHg 60%
    11:00 +10°C° 0 mm 1 mps 730 mmHg 57%
    12:00 +11°C° 0 mm 1 mps 729 mmHg 55%
    13:00 +11°C° 0 mm 1 mps 729 mmHg 56%
    14:00 +10°C° 0 mm 2 mps 729 mmHg 58%
    15:00 +10°C° 0 mm 2 mps 729 mmHg 59%
    16:00 +9°C° 0 mm 2 mps 729 mmHg 65%
    17:00 +8°C° 0 mm 2 mps 729 mmHg 71%
    18:00 +6°C° 0 mm 2 mps 729 mmHg 77%
    19:00 +6°C° 0 mm 2 mps 729 mmHg 78%
    20:00 +6°C° 0 mm 2 mps 729 mmHg 78%
    21:00 +6°C° 0 mm 2 mps 730 mmHg 78%
    22:00 +7°C° 0 mm 1 mps 730 mmHg 78%
    23:00 +7°C° 0 mm 1 mps 730 mmHg 78%

    Tomorrow, 18 December, Monday

    Time Temperature Precipitation Wind Pressure Humidity
    00:00 +7°C° 0 mm 1 mps 730 mmHg 77%
    01:00 +7°C° 0 mm 1 mps 730 mmHg 77%
    02:00 +6°C° 0 mm 1 mps 729 mmHg 76%
    03:00 +6°C° 0 mm 1 mps 729 mmHg 76%
    04:00 +6°C° 0 mm 1 mps 729 mmHg 75%
    05:00 +6°C° 0 mm 1 mps 729 mmHg 75%
    06:00 +6°C° 0 mm 1 mps 729 mmHg 74%
    07:00 +7°C° 0 mm 1 mps 729 mmHg 71%
    08:00 +7°C° 0 mm 1 mps 729 mmHg 68%
    09:00 +8°C° 0 mm 1 mps 729 mmHg 65%
    10:00 +9°C° 0 mm 1 mps 729 mmHg 61%
    11:00 +10°C° 0 mm 1 mps 728 mmHg 58%
    12:00 +11°C° 0 mm 1 mps 728 mmHg 54%
    13:00 +11°C° 0 mm 1 mps 728 mmHg 53%
    14:00 +12°C° 0 mm 1 mps 728 mmHg 52%
    15:00 +12°C° 0 mm 1 mps 727 mmHg 52%
    16:00 +11°C° 0 mm 1 mps 728 mmHg 55%
    17:00 +10°C° 0 mm 1 mps 728 mmHg 59%
    18:00 +9°C° 0 mm 1 mps 728 mmHg 63%
    19:00 +7°C° 0 mm 2 mps 728 mmHg 64%
    20:00 +7°C° 0 mm 2 mps 728 mmHg 65%
    21:00 +7°C° 0 mm 2 mps 728 mmHg 66%
    22:00 +7°C° 0 mm 2 mps 728 mmHg 68%
    23:00 +6°C° 0 mm 2 mps 728 mmHg 70%

    Day after tomorrow, 19 December, Tuesday

    Time Temperature Precipitation Wind Pressure Humidity
    00:00 +7°C° 0 mm 1 mps 728 mmHg 71%
    01:00 +7°C° 0 mm 1 mps 728 mmHg 72%
    02:00 +7°C° 0 mm 1 mps 728 mmHg 72%
    03:00 +6°C° 0 mm 1 mps 728 mmHg 73%
    04:00 +6°C° 0 mm 1 mps 728 mmHg 72%
    05:00 +7°C° 0 mm 1 mps 728 mmHg 71%
    06:00 +6°C° 0 mm 2 mps 728 mmHg 70%
    07:00 +7°C° 0 mm 2 mps 728 mmHg 65%
    08:00 +8°C° 0 mm 2 mps 728 mmHg 60%
    09:00 +9°C° 0 mm 2 mps 728 mmHg 55%
    10:00 +10°C° 0 mm 2 mps 728 mmHg 50%
    11:00 +13°C° 0 mm 2 mps 728 mmHg 45%
    12:00 +13°C° 0 mm 3 mps 727 mmHg 40%
    13:00 +13°C° 0 mm 3 mps 727 mmHg 39%
    14:00 +14°C° 0 mm 3 mps 727 mmHg 39%
    15:00 +14°C° 0 mm 3 mps 727 mmHg 39%
    16:00 +13°C° 0 mm 3 mps 727 mmHg 42%
    17:00 +11°C° 0 mm 3 mps 728 mmHg 45%
    18:00 +10°C° 0 mm 4 mps 728 mmHg 48%
    19:00 +10°C° 0 mm 4 mps 728 mmHg 48%
    20:00 +10°C° 0 mm 4 mps 729 mmHg 49%
    21:00 +10°C° 0 mm 4 mps 729 mmHg 49%
    22:00 +10°C° 0 mm 3 mps 729 mmHg 49%
    23:00 +9°C° 0 mm 3 mps 730 mmHg 50%

    20 December, Wednesday

    Time Temperature Precipitation Wind Pressure Humidity
    00:00 +9°C° 0 mm 3 mps 730 mmHg 50%
    01:00 +9°C° 0 mm 3 mps 730 mmHg 51%
    02:00 +9°C° 0 mm 3 mps 730 mmHg 51%
    03:00 +9°C° 0 mm 3 mps 731 mmHg 52%
    04:00 +8°C° 0 mm 2 mps 731 mmHg 53%
    05:00 +8°C° 0 mm 2 mps 731 mmHg 54%
    06:00 +8°C° 0 mm 2 mps 731 mmHg 54%
    07:00 +10°C° 0 mm 1 mps 731 mmHg 53%
    08:00 +10°C° 0 mm 1 mps 732 mmHg 51%
    09:00 +11°C° 0 mm 1 mps 732 mmHg 49%
    10:00 +12°C° 0 mm 1 mps 732 mmHg 47%
    11:00 +13°C° 0 mm 1 mps 732 mmHg 45%
    12:00 +13°C° 0 mm 1 mps 731 mmHg 43%
    13:00 +13°C° 0 mm 1 mps 731 mmHg 44%
    14:00 +13°C° 0 mm 1 mps 731 mmHg 45%
    15:00 +13°C° 0 mm 1 mps 731 mmHg 46%
    16:00 +12°C° 0 mm 1 mps 731 mmHg 50%
    17:00 +11°C° 0 mm 1 mps 731 mmHg 54%
    18:00 +9°C° 0 mm 0 mps 731 mmHg 58%
    19:00 +9°C° 0 mm 0 mps 732 mmHg 59%
    20:00 +9°C° 0 mm 0 mps 732 mmHg 60%
    21:00 +9°C° 0 mm 0 mps 732 mmHg 61%
    22:00 +10°C° 0 mm 1 mps 732 mmHg 63%
    23:00 +9°C° 0 mm 1 mps 732 mmHg 65%

    21 December, Thursday

    Time Temperature Precipitation Wind Pressure Humidity
    00:00 +9°C° 0 mm 1 mps 731 mmHg 67%
    01:00 +9°C° 0 mm 1 mps 731 mmHg 67%
    02:00 +8°C° 0 mm 2 mps 731 mmHg 66%
    03:00 +8°C° 0 mm 2 mps 731 mmHg 65%
    04:00 +8°C° 0 mm 2 mps 731 mmHg 66%
    05:00 +8°C° 0 mm 3 mps 730 mmHg 67%
    06:00 +8°C° 0 mm 3 mps 730 mmHg 68%
    07:00 +8°C° 0 mm 3 mps 730 mmHg 66%
    08:00 +9°C° 0 mm 3 mps 730 mmHg 63%
    09:00 +10°C° 0 mm 3 mps 730 mmHg 61%
    10:00 +11°C° 0 mm 3 mps 730 mmHg 57%
    11:00 +13°C° 0 mm 4 mps 729 mmHg 53%
    12:00 +14°C° 0 mm 4 mps 729 mmHg 49%
    13:00 +14°C° 0 mm 4 mps 728 mmHg 49%
    14:00 +14°C° 0 mm 4 mps 728 mmHg 50%
    15:00 +14°C° 0 mm 4 mps 728 mmHg 50%
    16:00 +13°C° 0 mm 4 mps 728 mmHg 54%
    17:00 +12°C° 0 mm 4 mps 728 mmHg 59%
    18:00 +10°C° 0 mm 4 mps 729 mmHg 63%
    19:00 +10°C° 0 mm 4 mps 729 mmHg 64%
    20:00 +10°C° 0 mm 3 mps 729 mmHg 64%
    21:00 +9°C° 0 mm 3 mps 728 mmHg 65%
    22:00 +9°C° 0 mm 3 mps 728 mmHg 65%
    23:00 +9°C° 0 mm 3 mps 728 mmHg 66%

    22 December, Friday

    Time Temperature Precipitation Wind Pressure Humidity
    00:00 +9°C° 0 mm 2 mps 727 mmHg 66%
    01:00 +9°C° 0 mm 2 mps 727 mmHg 68%
    02:00 +8°C° 0 mm 2 mps 726 mmHg 69%
    03:00 +9°C° 0 mm 1 mps 726 mmHg 71%
    04:00 +9°C° 0 mm 1 mps 726 mmHg 73%
    05:00 +8°C° 0 mm 1 mps 726 mmHg 76%
    06:00 +8°C° 0 mm 1 mps 725 mmHg 79%
    07:00 +8°C° 0.1 mm 1 mps 725 mmHg 78%
    08:00 +8°C° 0.1 mm 1 mps 725 mmHg 77%
    09:00 +9°C° 0.1 mm 1 mps 725 mmHg 77%
    10:00 +8°C° 0.6 mm 2 mps 724 mmHg 79%
    11:00 +8°C° 0.6 mm 2 mps 724 mmHg 81%
    12:00 +8°C° 0.6 mm 2 mps 723 mmHg 82%
    13:00 +8°C° 0.1 mm 2 mps 723 mmHg 83%
    14:00 +8°C° 0.1 mm 2 mps 723 mmHg 83%
    15:00 +9°C° 0.1 mm 1 mps 722 mmHg 83%
    16:00 +8°C° 0.5 mm 2 mps 723 mmHg 83%
    17:00 +6°C° 0.5 mm 4 mps 724 mmHg 83%
    18:00 +6°C° 0.5 mm 5 mps 725 mmHg 82%
    19:00 +6°C° 0.1 mm 4 mps 725 mmHg 77%
    20:00 +5°C° 0.1 mm 4 mps 725 mmHg 73%
    21:00 +5°C° 0.1 mm 4 mps 726 mmHg 68%
    22:00 +5°C° 0 mm 4 mps 726 mmHg 68%
    23:00 +5°C° 0 mm 4 mps 726 mmHg 67%
    Show more